IT9FBN-3 Weather Reports


Display with metric or nautical units.
time (UTC)temp
F
wind
direction
speed
MPH
gust
MPH
rain 1hr
in
rain 24hr
in
rain mn
in
humidity
%
barometer
mb
20260510234502 56 207 7.0 12.0 0.00 0.02 0.00 62 1016.4
20260510234002 56 208 7.0 12.0 0.00 0.03 0.00 63 1016.5
20260510233502 56 206 7.0 12.0 0.00 0.04 0.00 65 1016.7
20260510233002 56 209 8.0 12.0 0.00 0.04 0.00 66 1016.6
20260510232502 56 210 7.0 12.0 0.00 0.04 0.00 67 1016.6
20260510232002 57 210 6.0 9.0 0.00 0.04 0.00 67 1016.5
20260510231503 57 210 6.0 9.0 0.00 0.04 0.00 68 1016.6
20260510231002 57 209 7.0 10.0 0.00 0.09 0.00 69 1016.6
20260510230502 57 213 8.0 11.0 0.00 0.09 0.00 70 1016.7
20260510230002 57 217 10.0 13.0 0.00 0.09 0.00 69 1016.6
20260510225503 57 210 8.0 13.0 0.00 0.09 0.00 70 1016.5
20260510225002 57 197 5.0 10.0 0.00 0.09 0.00 70 1016.7
20260510224502 57 200 5.0 8.0 0.00 0.09 0.00 71 1016.7
20260510224002 57 206 5.0 10.0 0.00 0.09 0.00 72 1016.6
20260510223502 57 209 5.0 10.0 0.00 0.09 0.00 72 1016.5
20260510223002 57 211 6.0 11.0 0.00 0.09 0.00 71 1016.5
20260510222502 57 210 8.0 11.0 0.00 0.09 0.00 69 1016.5
20260510222002 57 203 8.0 13.0 0.00 0.09 0.00 68 1016.4
20260510221502 57 201 8.0 13.0 0.00 0.09 0.00 68 1016.5
20260510221002 57 202 9.0 13.0 0.00 0.09 0.00 68 1016.4
20260510220502 57 203 9.0 13.0 0.00 0.09 0.00 67 1016.4
20260510220006 57 206 9.0 15.0 0.00 0.09 0.00 67 1016.2
20260510215502 57 210 10.0 15.0 0.00 0.09 0.09 66 1016.1
20260510215002 57 216 10.0 14.0 0.00 0.09 0.09 66 1016.1
20260510214502 57 216 10.0 15.0 0.00 0.09 0.09 67 1016.1
20260510214002 57 217 10.0 16.0 0.00 0.09 0.09 68 1016.3
20260510213502 57 215 10.0 16.0 0.00 0.09 0.09 68 1016.4
20260510213004 57 208 9.0 15.0 0.00 0.09 0.09 69 1016.4
20260510212502 58 205 8.0 15.0 0.00 0.09 0.09 70 1016.3
20260510212002 58 207 7.0 13.0 0.00 0.09 0.09 72 1016.4
20260510211503 58 206 8.0 13.0 0.00 0.09 0.09 73 1016.3
20260510211003 58 204 7.0 12.0 0.00 0.09 0.09 75 1016.5
20260510210502 59 200 7.0 11.0 0.00 0.09 0.09 77 1016.4
20260510210003 59 206 7.0 11.0 0.00 0.09 0.09 79 1016.4
20260510205502 59 213 7.0 10.0 0.00 0.09 0.09 80 1016.3
20260510205002 59 217 8.0 12.0 0.00 0.09 0.09 81 1016.3
20260510204502 60 212 8.0 12.0 0.00 0.09 0.09 80 1016.2
20260510204002 59 211 9.0 13.0 0.00 0.09 0.09 80 1016.5
20260510203502 59 215 11.0 16.0 0.00 0.09 0.09 80 1016.4
20260510203002 59 211 10.0 16.0 0.00 0.09 0.09 80 1016.5
20260510202502 59 197 6.0 13.0 0.00 0.09 0.09 80 1016.5
20260510202002 59 166 4.0 7.0 0.00 0.09 0.09 81 1016.5
20260510201502 59 165 4.0 7.0 0.00 0.09 0.09 81 1016.6
20260510201002 59 181 3.0 7.0 0.00 0.09 0.09 82 1016.6
20260510200502 59 190 3.0 5.0 0.00 0.09 0.09 83 1016.5
20260510200002 59 180 3.0 6.0 0.00 0.09 0.09 83 1016.8
20260510195502 59 171 3.0 6.0 0.00 0.09 0.09 83 1016.9
20260510195003 59 166 2.0 5.0 0.00 0.09 0.09 84 1016.7
20260510194502 60 160 2.0 4.0 0.00 0.09 0.09 84 1016.6
20260510194002 60 152 2.0 4.0 0.00 0.09 0.09 83 1016.7
20260510193502 60 141 1.0 3.0 0.00 0.09 0.09 83 1016.7
20260510193002 60 146 1.0 3.0 0.00 0.09 0.09 82 1016.7
20260510192502 60 155 1.0 3.0 0.00 0.09 0.09 83 1016.7
20260510192002 60 154 1.0 3.0 0.00 0.09 0.09 83 1016.6
20260510191502 60 152 1.0 4.0 0.00 0.09 0.09 83 1016.7
20260510191002 60 154 2.0 5.0 0.00 0.09 0.09 83 1016.6
20260510190502 61 161 3.0 5.0 0.00 0.09 0.09 83 1016.5
20260510190002 61 156 2.0 4.0 0.00 0.09 0.09 83 1016.5
20260510185503 62 149 2.0 4.0 0.00 0.09 0.09 83 1016.7
20260510185002 62 160 2.0 4.0 0.00 0.09 0.09 83 1016.5
20260510184502 62 159 2.0 4.0 0.00 0.09 0.09 83 1016.3
20260510184002 62 156 2.0 5.0 0.00 0.09 0.09 83 1016.3
20260510183503 63 141 2.0 5.0 0.00 0.09 0.09 82 1016.3
20260510183002 63 126 2.0 5.0 0.00 0.09 0.09 82 1016.2
20260510182502 63 131 1.0 4.0 0.00 0.09 0.09 82 1016.3
20260510182002 63 103 2.0 6.0 0.00 0.09 0.09 81 1016.4
20260510181503 63 86 3.0 6.0 0.00 0.09 0.09 81 1016.3
20260510181002 64 83 3.0 7.0 0.00 0.09 0.09 81 1016.3
20260510180503 64 94 3.0 7.0 0.00 0.09 0.09 80 1016.5
20260510180003 64 97 3.0 7.0 0.00 0.09 0.09 80 1016.5
20260510175503 65 94 3.0 7.0 0.00 0.09 0.09 79 1016.5
20260510175002 65 100 3.0 6.0 0.00 0.09 0.09 79 1016.4
20260510174502 66 106 3.0 8.0 0.00 0.09 0.09 78 1016.5
20260510174003 66 105 4.0 8.0 0.00 0.09 0.09 78 1016.5
20260510173502 66 108 5.0 8.0 0.00 0.09 0.09 78 1016.5
20260510173003 66 111 5.0 12.0 0.00 0.09 0.09 77 1016.4
20260510172502 66 101 6.0 12.0 0.00 0.09 0.09 77 1016.4
20260510172003 67 86 7.0 11.0 0.00 0.09 0.09 75 1016.4
20260510171503 67 85 7.0 12.0 0.00 0.09 0.09 74 1016.4
20260510171002 67 96 7.0 13.0 0.00 0.09 0.09 74 1016.4
20260510170503 67 100 8.0 14.0 0.00 0.09 0.09 74 1016.4
20260510170003 67 101 8.0 14.0 0.00 0.09 0.09 74 1016.4
20260510165502 68 101 7.0 13.0 0.00 0.09 0.09 74 1016.1
20260510165002 68 104 8.0 15.0 0.00 0.09 0.09 74 1016.1
20260510164503 68 101 8.0 15.0 0.00 0.09 0.09 74 1016.3
20260510164002 68 99 7.0 13.0 0.00 0.09 0.09 74 1016.2
20260510163503 68 105 7.0 13.0 0.00 0.09 0.09 74 1016.1
20260510163002 68 104 8.0 15.0 0.00 0.09 0.09 74 1016.2
20260510162503 68 102 9.0 16.0 0.00 0.09 0.09 74 1016.2
20260510162002 68 102 10.0 16.0 0.00 0.09 0.09 74 1016.2
20260510161502 68 106 10.0 16.0 0.00 0.09 0.09 73 1016.2
20260510161003 69 109 9.0 16.0 0.00 0.09 0.09 73 1016.3
20260510160502 69 102 10.0 19.0 0.00 0.09 0.09 70 1016.3
20260510160003 69 93 11.0 19.0 0.00 0.09 0.09 70 1016.4
20260510155503 70 90 10.0 17.0 0.00 0.09 0.09 67 1016.3
20260510155002 70 96 9.0 16.0 0.00 0.09 0.09 66 1016.4
20260510154503 70 99 8.0 15.0 0.00 0.09 0.09 67 1016.4
20260510154003 70 89 8.0 15.0 0.00 0.09 0.09 67 1016.3
20260510153503 70 82 9.0 14.0 0.00 0.09 0.09 66 1016.4
20260510153003 71 83 7.0 13.0 0.00 0.09 0.09 66 1016.4
20260510152503 72 71 6.0 13.0 0.00 0.09 0.09 66 1016.5
20260510152002 71 69 7.0 13.0 0.00 0.09 0.09 66 1016.6
20260510151503 71 74 7.0 13.0 0.00 0.09 0.09 65 1016.5
20260510151003 71 67 7.0 14.0 0.00 0.09 0.09 64 1016.6
20260510150503 71 70 7.0 17.0 0.00 0.09 0.09 65 1016.4
20260510150002 71 75 7.0 17.0 0.00 0.09 0.09 64 1016.3
20260510145502 71 72 7.0 14.0 0.00 0.09 0.09 62 1016.3
20260510145003 71 75 9.0 16.0 0.00 0.09 0.09 63 1016.4
20260510144503 71 77 9.0 16.0 0.00 0.09 0.09 63 1016.3
20260510144003 71 75 8.0 17.0 0.00 0.09 0.09 64 1016.5
20260510143503 71 72 9.0 17.0 0.00 0.09 0.09 64 1016.5
20260510143003 71 73 9.0 17.0 0.00 0.09 0.09 65 1016.5
20260510142502 71 67 9.0 18.0 0.00 0.09 0.09 64 1016.6
20260510142002 71 62 9.0 18.0 0.00 0.09 0.09 64 1016.6
20260510141503 71 65 8.0 15.0 0.00 0.09 0.09 64 1016.7
20260510141003 71 66 8.0 15.0 0.00 0.09 0.09 64 1016.7
20260510140503 71 67 8.0 16.0 0.00 0.09 0.09 65 1016.6
20260510140003 71 72 9.0 16.0 0.00 0.09 0.09 66 1016.7
20260510135503 70 68 11.0 18.0 0.00 0.09 0.09 66 1016.8
20260510135003 71 66 11.0 18.0 0.00 0.09 0.09 66 1016.8
20260510134502 71 71 11.0 20.0 0.00 0.09 0.09 66 1016.7
20260510134003 71 65 10.0 20.0 0.00 0.09 0.09 65 1016.7
20260510133503 72 57 10.0 19.0 0.00 0.09 0.09 65 1016.6
20260510133003 71 65 11.0 19.0 0.00 0.09 0.09 65 1016.7
20260510132503 71 67 10.0 18.0 0.00 0.09 0.09 66 1016.7
20260510132003 71 58 9.0 18.0 0.00 0.09 0.09 64 1016.8
20260510131503 71 61 9.0 16.0 0.00 0.09 0.09 65 1016.7
20260510131003 71 64 9.0 16.0 0.00 0.09 0.09 66 1016.8
20260510130503 71 61 9.0 19.0 0.00 0.09 0.09 67 1016.7
20260510130003 70 61 9.0 19.0 0.00 0.09 0.09 68 1016.8
20260510125503 71 59 8.0 17.0 0.00 0.09 0.09 66 1016.9
20260510125003 71 63 8.0 17.0 0.00 0.09 0.09 67 1017.0
20260510124503 71 66 8.0 17.0 0.00 0.09 0.09 66 1017.0
20260510124003 71 67 8.0 15.0 0.00 0.09 0.09 67 1016.9
20260510123503 70 70 8.0 15.0 0.00 0.09 0.09 68 1016.9
20260510123003 70 74 10.0 19.0 0.00 0.09 0.09 68 1017.0
20260510122503 70 69 11.0 19.0 0.00 0.09 0.09 69 1017.1
20260510122003 70 62 10.0 18.0 0.00 0.09 0.09 68 1017.2
20260510121503 70 61 10.0 18.0 0.00 0.09 0.09 69 1017.2
20260510121003 70 61 9.0 18.0 0.00 0.09 0.09 69 1017.1
20260510120503 71 56 9.0 17.0 0.00 0.09 0.09 69 1017.2
20260510120003 71 55 10.0 18.0 0.00 0.09 0.09 69 1017.2
20260510115504 70 61 10.0 18.0 0.00 0.09 0.09 70 1017.0
20260510115003 70 65 9.0 17.0 0.00 0.09 0.09 70 1017.0
20260510114503 70 64 10.0 17.0 0.00 0.09 0.09 71 1017.2
20260510114003 70 57 9.0 17.0 0.00 0.09 0.09 72 1017.2
20260510113503 70 54 9.0 18.0 0.00 0.09 0.09 72 1017.1
20260510113003 69 62 10.0 19.0 0.00 0.09 0.09 72 1017.1
20260510112503 69 71 10.0 19.0 0.00 0.09 0.09 74 1017.1
20260510112003 69 69 9.0 19.0 0.00 0.09 0.09 74 1017.2
20260510111503 69 58 8.0 14.0 0.00 0.09 0.09 73 1017.2
20260510111003 69 67 9.0 18.0 0.00 0.09 0.09 75 1017.1
20260510110503 68 76 11.0 18.0 0.00 0.09 0.09 75 1017.2
20260510110003 68 74 9.0 18.0 0.00 0.09 0.09 75 1017.2
20260510105503 69 61 9.0 18.0 0.00 0.09 0.09 75 1017.3
20260510105003 69 61 9.0 18.0 0.00 0.09 0.09 74 1017.3
20260510104503 69 55 9.0 18.0 0.00 0.09 0.09 74 1017.4
20260510104003 69 48 9.0 18.0 0.00 0.09 0.09 74 1017.4
20260510103503 68 62 9.0 18.0 0.00 0.09 0.09 75 1017.3
20260510103003 68 69 10.0 17.0 0.00 0.09 0.09 77 1017.3
20260510102503 68 54 11.0 18.0 0.00 0.09 0.09 76 1017.3
20260510102003 68 45 10.0 18.0 0.00 0.09 0.09 75 1017.5
20260510101503 68 55 9.0 17.0 0.00 0.09 0.09 74 1017.4
20260510101003 68 66 11.0 19.0 0.00 0.09 0.09 76 1017.4
20260510100503 67 71 11.0 19.0 0.00 0.09 0.09 77 1017.4
20260510100004 68 64 9.0 18.0 0.00 0.09 0.09 77 1017.5
20260510095504 69 53 8.0 18.0 0.00 0.09 0.09 75 1017.4
20260510095003 69 49 9.0 17.0 0.00 0.09 0.09 75 1017.3
20260510094503 68 49 11.0 21.0 0.00 0.09 0.09 75 1017.2
20260510094003 68 54 11.0 21.0 0.00 0.09 0.09 74 1017.2
20260510093503 68 54 10.0 19.0 0.00 0.09 0.09 73 1017.3
20260510093003 68 54 10.0 16.0 0.00 0.09 0.09 74 1017.3
20260510092503 68 61 10.0 17.0 0.00 0.09 0.09 76 1017.3
20260510092003 68 52 10.0 18.0 0.00 0.09 0.09 75 1017.2
20260510091503 67 44 11.0 18.0 0.00 0.09 0.09 75 1017.2
20260510091003 67 43 10.0 17.0 0.00 0.09 0.09 75 1017.2
20260510090503 68 47 9.0 17.0 0.00 0.09 0.09 75 1017.1
20260510090003 67 53 10.0 20.0 0.00 0.09 0.09 75 1017.1
20260510085503 67 50 11.0 20.0 0.00 0.09 0.09 76 1017.1
20260510085003 67 47 9.0 17.0 0.00 0.09 0.09 76 1017.3
20260510084503 67 52 8.0 17.0 0.00 0.09 0.09 77 1017.2
20260510084003 67 54 9.0 17.0 0.00 0.09 0.09 77 1017.2
20260510083503 66 55 10.0 18.0 0.00 0.09 0.09 79 1017.1
20260510083003 66 60 10.0 18.0 0.00 0.09 0.09 80 1017.0
20260510082503 66 66 10.0 19.0 0.00 0.09 0.09 80 1017.2
20260510082003 66 65 10.0 19.0 0.00 0.09 0.09 80 1017.2
20260510081507 66 65 11.0 18.0 0.00 0.09 0.09 82 1017.0
20260510081001 66 66 10.0 17.0 0.00 0.09 0.09 83 1016.9
20260510080501 66 67 9.0 17.0 0.00 0.09 0.09 83 1016.9
20260510080002 66 69 9.0 15.0 0.00 0.09 0.09 83 1016.9
20260510075501 66 69 9.0 15.0 0.00 0.09 0.09 83 1016.8
20260510075001 66 69 9.0 16.0 0.00 0.09 0.09 83 1016.8
20260510074501 66 71 8.0 16.0 0.00 0.09 0.09 84 1016.7
20260510074001 66 71 7.0 14.0 0.00 0.09 0.09 83 1016.6
20260510073501 66 67 7.0 13.0 0.00 0.09 0.09 83 1016.7
20260510073001 65 67 7.0 13.0 0.00 0.09 0.09 83 1016.7
20260510072504 65 72 7.0 13.0 0.00 0.09 0.09 83 1016.7
20260510072001 65 66 6.0 11.0 0.00 0.09 0.09 83 1016.6
20260510071501 65 65 6.0 11.0 0.00 0.09 0.09 83 1016.6
20260510071001 65 69 6.0 10.0 0.00 0.09 0.09 83 1016.5
20260510070501 65 64 5.0 11.0 0.00 0.09 0.09 83 1016.6
20260510070001 65 63 5.0 11.0 0.00 0.09 0.09 81 1016.5
20260510065501 64 66 6.0 10.0 0.00 0.09 0.09 79 1016.5
20260510065001 64 65 6.0 10.0 0.00 0.09 0.09 81 1016.5
20260510064501 64 64 7.0 11.0 0.00 0.09 0.09 79 1016.4
20260510064001 64 64 7.0 11.0 0.00 0.09 0.09 78 1016.4
20260510063501 63 65 6.0 10.0 0.00 0.09 0.09 78 1016.3
20260510063001 63 65 6.0 11.0 0.00 0.09 0.09 76 1016.4
20260510062501 63 60 6.0 11.0 0.00 0.09 0.09 75 1016.2
20260510062001 62 65 6.0 10.0 0.00 0.09 0.09 75 1016.1
20260510061501 62 70 6.0 12.0 0.00 0.09 0.09 73 1016.3
20260510061001 62 67 6.0 12.0 0.00 0.09 0.09 71 1016.1
20260510060501 62 57 5.0 11.0 0.00 0.09 0.09 69 1015.9
20260510060002 61 54 5.0 11.0 0.00 0.09 0.09 65 1016.0
20260510055501 61 56 6.0 11.0 0.00 0.09 0.09 63 1015.8
20260510055001 60 62 8.0 14.0 0.00 0.09 0.09 61 1015.8
20260510054502 60 69 8.0 14.0 0.00 0.09 0.09 61 1015.8
20260510054002 60 70 6.0 13.0 0.00 0.09 0.09 60 1015.6
20260510053502 60 75 6.0 12.0 0.00 0.09 0.09 61 1015.4
20260510053002 60 78 6.0 12.0 0.00 0.09 0.09 63 1015.4
20260510052502 61 74 6.0 11.0 0.00 0.09 0.09 65 1015.5
20260510052002 61 74 4.0 9.0 0.00 0.09 0.09 68 1015.4
20260510051502 61 65 3.0 9.0 0.00 0.09 0.09 69 1015.2
20260510051002 61 60 4.0 8.0 0.00 0.09 0.09 71 1015.1
20260510050502 61 64 3.0 8.0 0.00 0.09 0.09 72 1014.8
20260510050003 62 72 2.0 8.0 0.00 0.09 0.09 74 1014.7
20260510045502 62 69 1.0 4.0 0.00 0.09 0.09 75 1014.7
20260510045002 62 52 2.0 5.0 0.00 0.09 0.09 76 1014.5
20260510044502 62 47 0.0 5.0 0.00 0.09 0.09 77 1014.3
20260510044002 65 41 0.0 1.0 0.00 0.09 0.09 82 1014.1
20260510043502 65 41 0.0 1.0 0.00 0.09 0.09 82 1014.2
20260510043002 65 41 0.0 1.0 0.00 0.09 0.09 82 1014.0
20260510042501 65 41 0.0 1.0 0.00 0.09 0.09 82 1014.1
20260510042002 65 41 0.0 1.0 0.00 0.09 0.09 82 1013.9
20260510041503 65 41 0.0 1.0 0.00 0.09 0.09 82 1013.9
20260510041002 65 41 0.0 1.0 0.00 0.09 0.09 82 1014.0
20260510040501 65 41 0.0 1.0 0.00 0.09 0.09 82 1014.0
20260510040002 65 41 0.0 1.0 0.00 0.09 0.09 82 1014.1
20260510035501 65 41 0.0 1.0 0.00 0.09 0.09 82 1014.2
20260510035001 65 41 0.0 1.0 0.00 0.09 0.09 82 1014.1
20260510034501 65 41 0.0 1.0 0.00 0.09 0.09 82 1014.1
20260510034001 65 41 0.0 1.0 0.00 0.09 0.09 82 1014.2
20260510033501 65 41 0.0 1.0 0.00 0.09 0.09 82 1014.3
20260510033001 65 38 0.0 5.0 0.00 0.09 0.09 82 1013.9
20260510032501 65 28 3.0 6.0 0.00 0.09 0.09 82 1013.9
20260510032001 65 4 3.0 7.0 0.00 0.09 0.09 82 1014.1
20260510031501 66 345 4.0 9.0 0.00 0.09 0.09 81 1013.9
20260510031001 66 341 5.0 10.0 0.00 0.09 0.09 80 1013.9
20260510030501 66 335 6.0 14.0 0.00 0.09 0.09 80 1014.0
20260510030001 66 332 6.0 15.0 0.00 0.09 0.09 80 1013.9
20260510025501 66 324 6.0 15.0 0.00 0.09 0.09 80 1013.7
20260510025001 66 324 5.0 12.0 0.00 0.09 0.09 80 1013.8
20260510024501 66 328 5.0 12.0 0.00 0.09 0.09 80 1014.0
20260510024001 66 328 5.0 9.0 0.00 0.09 0.09 81 1013.9
20260510023502 66 331 5.0 9.0 0.00 0.09 0.09 82 1013.8
20260510023001 66 328 4.0 8.0 0.00 0.09 0.09 82 1013.9
20260510022501 66 320 4.0 9.0 0.00 0.09 0.09 83 1013.9
20260510022001 66 317 5.0 10.0 0.00 0.09 0.09 83 1014.1
20260510021501 66 310 4.0 10.0 0.00 0.09 0.09 83 1014.2
20260510021001 66 305 3.0 8.0 0.00 0.09 0.09 84 1014.4
20260510020501 65 300 3.0 9.0 0.01 0.09 0.09 83 1014.4
20260510020001 65 292 3.0 12.0 0.01 0.09 0.09 80 1014.7
20260510015502 63 290 3.0 12.0 0.01 0.09 0.09 73 1014.7
20260510015001 63 288 4.0 14.0 0.01 0.09 0.09 54 1014.9
20260510014501 62 277 6.0 14.0 0.01 0.09 0.09 46 1014.9
20260510014001 62 260 8.0 14.0 0.01 0.09 0.09 45 1015.0
20260510013501 61 253 10.0 17.0 0.01 0.09 0.09 45 1015.4
20260510013001 61 244 11.0 17.0 0.01 0.09 0.09 45 1014.9
20260510012501 60 235 11.0 16.0 0.01 0.09 0.09 45 1015.2
20260510012001 60 233 12.0 19.0 0.01 0.09 0.09 46 1015.3
20260510011501 60 230 12.0 19.0 0.01 0.09 0.09 46 1015.2
20260510011001 60 228 11.0 16.0 0.01 0.09 0.09 46 1015.7
20260510010501 60 237 11.0 20.0 0.00 0.08 0.08 46 1015.8
20260510010002 60 240 13.0 20.0 0.00 0.08 0.08 46 1015.6
20260510005502 60 232 14.0 19.0 0.00 0.08 0.08 46 1015.6
20260510005001 60 228 14.0 20.0 0.00 0.08 0.08 46 1015.5
20260510004502 60 229 11.0 20.0 0.01 0.08 0.08 46 1016.0
20260510004001 60 222 8.0 14.0 0.02 0.08 0.08 46 1016.7
20260510003502 60 205 8.0 17.0 0.03 0.08 0.08 47 1017.1
20260510003003 60 200 11.0 20.0 0.03 0.08 0.08 47 1017.3
20260510002502 60 204 13.0 22.0 0.03 0.08 0.08 47 1017.0
20260510002002 60 209 14.0 22.0 0.03 0.08 0.08 47 1017.2
20260510001502 60 209 15.0 22.0 0.03 0.08 0.08 48 1017.2
20260510001001 60 212 15.0 22.0 0.08 0.08 0.08 48 1017.1
20260510000502 60 219 14.0 22.0 0.08 0.08 0.08 49 1017.1
20260510000002 60 219 12.0 20.0 0.08 0.08 0.08 50 1017.3
20260509235502 60 216 11.0 18.0 0.08 0.08 0.08 50 1017.3
20260509235002 60 213 10.0 18.0 0.08 0.08 0.08 51 1017.4